www.pogodaiklimat.ru

Погода и климат >> Архив погоды >> Австралия >> Южная Австралия >> Таркула


ПОГОДА в Таркуле

  • Прогноз погоды в Таркуле
  • Монитор погоды в Таркуле

АРХИВ ПОГОДЫ в Таркуле

Время (UTC), дата Ветер
(напр.,м/с)
 
Видим.   Явления Облачность Т
(С)
Тd
(С)
f
(%)
Тe
(С)
Тes
(С)
Комфортность P
(гПа)
Po
(гПа)
Тmin
(С)
Tmax
(С)
R
(мм)
R24
(мм)
S
(см)
01 17.03 С 3 н/о н/о +31.9 -1.0 12 +29 +29 жарко 1016.5 1002.2 +14.6
02 17.03 С 3 н/о н/о +32.9 -1.4 11 +29 +29 жарко 1015.8 1001.5
04 17.03 СЗ 2 н/о н/о +34.7 -2.8 9 +31 +31 жарко 1014.2 1000.0
05 17.03 З 3 н/о н/о +36.2 -1.7 9 +32 +32 жарко 1013.4 999.2
07 17.03 ЮЗ 3 н/о н/о +36.5 -1.4 9 +33 +33 жарко 1012.6 998.4
08 17.03 ЮЗ 5 н/о н/о +35.7 -0.6 10 +32 +32 жарко 1012.6 998.4
10 17.03 Ю 8 н/о н/о +30.6 +4.4 19 +29 +29 жарко 1014.4 1000.2
11 17.03 Ю 6 н/о н/о +28.7 +2.1 18 +27 +27 жарко 1015.4 1001.2
13 17.03 Ю 5 н/о н/о +24.9 +4.1 26 +24 +24 комфорт 1015.9 1001.6 +37.0
14 17.03 Ю 3 н/о н/о +23.4 +6.2 33 +24 +24 комфорт 1015.9 1001.6
16 17.03 ЮЗ 4 н/о н/о +20.2 +12.2 60 +22 +22 комфорт 1015.3 1001.1
17 17.03 ЮЗ 3 н/о н/о +18.9 +12.4 66 +20 +20 1015.1 1000.9
19 17.03 ЮЗ 5 н/о н/о +18.1 +14.2 78 +18 +18 1015.6 1001.3
20 17.03 ЮЗ 4 н/о н/о +17.8 +14.1 79 +18 +18 1015.7 1001.4
22 17.03 ЮЗ 3 н/о н/о +18.2 +13.9 76 +19 +19 1016.5 1002.2
23 17.03 ЮЗ 3 н/о н/о +19.7 +14.3 71 +22 +22 комфорт 1016.8 1002.5
01 18.03 Ю 3 н/о н/о +26.7 +12.0 40 +28 +28 жарко 1016.6 1002.3 +17.7
02 18.03 З 2 н/о н/о +29.3 +10.4 31 +29 +29 жарко 1016.1 1001.8
04 18.03 З 4 н/о н/о +34.4 +5.8 17 +32 +32 жарко 1014.3 1000.1
05 18.03 ЮЗ 4 н/о н/о +35.0 +5.4 16 +32 +32 жарко 1013.3 999.1
07 18.03 ЮЗ 7 н/о н/о +34.9 +5.4 16 +32 +32 жарко 1012.4 998.2
08 18.03 Ю 6 н/о н/о +33.6 +6.8 19 +32 +32 жарко 1012.7 998.5
10 18.03 Ю 6 н/о н/о +30.3 +8.7 26 +30 +30 жарко 1014.1 999.9
11 18.03 Ю 6 н/о н/о +27.6 +9.0 31 +28 +28 жарко 1015.3 1001.1
13 18.03 ЮЗ 7 н/о н/о +22.9 +12.2 51 +26 +26 жарко 1016.1 1001.8 +36.8
14 18.03 ЮЗ 6 н/о н/о +21.3 +12.7 58 +24 +24 комфорт 1016.0 1001.7
16 18.03 Ю 5 н/о н/о +19.0 +13.2 69 +20 +20 1015.4 1001.2
17 18.03 Ю 4 н/о н/о +18.6 +13.0 70 +19 +19 1015.2 1001.0
19 18.03 Ю 4 н/о н/о +18.3 +13.0 71 +18 +18 1015.2 1001.0
20 18.03 Ю 4 н/о н/о +18.1 +12.8 71 +18 +18 1015.2 1001.0
22 18.03 ЮЗ 5 н/о н/о +17.9 +12.8 72 +18 +18 1016.4 1002.1
23 18.03 ЮЗ 5 н/о н/о +19.0 +13.0 68 +20 +20 1017.4 1003.1
01 19.03 ЮЗ 3 н/о н/о +21.9 +12.7 56 +24 +24 комфорт 1017.2 1002.9 +17.8
02 19.03 ЮЗ 4 н/о н/о +25.2 +12.4 45 +27 +27 жарко 1016.7 1002.4
04 19.03 ЮЗ 5 н/о н/о +31.4 +9.0 25 +31 +31 жарко 1014.3 1000.1
05 19.03 Ю 4 н/о н/о +33.1 +6.4 19 +31 +31 жарко 1013.4 999.2
07 19.03 ЮЗ 5 н/о н/о +34.0 +7.1 19 +32 +32 жарко 1012.4 998.2
08 19.03 ЮЗ 5 н/о н/о +33.5 +7.5 20 +32 +32 жарко 1012.5 998.3
10 19.03 Ю 5 н/о н/о +30.1 +8.5 26 +29 +29 жарко 1013.7 999.5
11 19.03 Ю 5 н/о н/о +28.5 +8.7 29 +28 +28 жарко 1014.6 1000.4
13 19.03 ЮЗ 5 н/о н/о +24.3 +9.8 40 +25 +25 комфорт 1015.6 1001.3 +34.7
14 19.03 ЮЗ 5 н/о н/о +22.7 +11.1 48 +25 +25 комфорт 1015.6 1001.3
16 19.03 Ю 4 н/о н/о +19.8 +11.6 59 +21 +21 комфорт 1015.0 1000.8
17 19.03 Ю 4 н/о н/о +18.9 +11.7 63 +20 +20 1014.6 1000.4
19 19.03 Ю 2 н/о н/о +17.3 +11.3 68 +18 +18 1014.6 1000.4
20 19.03 ЮЗ 2 н/о н/о +16.3 +11.0 71 +16 +16 1014.8 1000.6
22 19.03 ЮЗ 3 н/о н/о +17.6 +11.6 68 +18 +18 1016.1 1001.8
23 19.03 ЮВ 2 н/о н/о +20.9 +11.5 55 +24 +24 комфорт 1016.1 1001.8
01 20.03 Ю 2 н/о н/о +28.0 +10.7 34 +29 +29 жарко 1016.2 1001.9 +15.7
02 20.03 ЮВ 3 н/о н/о +29.8 +8.8 27 +29 +29 жарко 1015.7 1001.4
04 20.03 ЮЗ 5 н/о н/о +34.0 +3.7 15 +31 +31 жарко 1014.0 999.8
05 20.03 ЮЗ 6 н/о н/о +34.0 +5.5 17 +32 +32 жарко 1013.3 999.1
07 20.03 ЮЗ 6 н/о н/о +34.4 +5.8 17 +32 +32 жарко 1012.7 998.5
08 20.03 ЮЗ 6 н/о н/о +33.6 +6.0 18 +31 +31 жарко 1012.8 998.6
10 20.03 Ю 5 н/о н/о +30.5 +7.0 23 +29 +29 жарко 1013.6 999.4
11 20.03 Ю 6 н/о н/о +28.6 +8.3 28 +28 +28 жарко 1014.6 1000.4
13 20.03 Ю 4 н/о н/о +24.1 +9.7 40 +25 +25 комфорт 1015.3 1001.1 +36.0
14 20.03 Ю 4 н/о н/о +22.3 +10.5 47 +24 +24 комфорт 1015.2 1001.0
16 20.03 Ю 3 н/о н/о +19.3 +11.1 59 +21 +21 комфорт 1014.3 1000.1
17 20.03 Ю 2 н/о н/о +17.8 +10.7 63 +18 +18 1014.0 999.8
19 20.03 ЮЗ 4 н/о н/о +15.7 +11.1 74 +15 +15 1014.2 1000.0
20 20.03 ЮЗ 3 н/о н/о +14.8 +10.8 77 +14 +14 1014.4 1000.2
22 20.03 ЮЗ 4 н/о н/о +15.5 +11.3 76 +15 +15 1015.7 1001.4
23 20.03 Ю 4 н/о н/о +18.6 +12.1 66 +19 +19 1016.4 1002.1
01 21.03 ЮЗ 3 н/о н/о +24.2 +11.9 46 +26 +26 жарко 1016.1 1001.8 +13.9
02 21.03 Ю 3 н/о н/о +27.3 +9.2 32 +27 +27 жарко 1015.3 1001.1
04 21.03 ЮЗ 6 н/о н/о +30.5 +5.7 21 +29 +29 жарко 1013.7 999.5
05 21.03 ЮЗ 6 н/о н/о +31.7 +5.3 19 +30 +30 жарко 1012.8 998.6
07 21.03 Ю 6 н/о н/о +31.8 +6.1 20 +30 +30 жарко 1012.0 997.8
08 21.03 ЮЗ 6 н/о н/о +31.1 +4.8 19 +29 +29 жарко 1012.4 998.2
10 21.03 Ю 4 н/о н/о +28.0 +7.3 27 +27 +27 жарко 1013.2 999.0
11 21.03 Ю 2 н/о н/о +26.5 +7.0 29 +26 +26 жарко 1013.7 999.5
13 21.03 Ю 3 н/о н/о +23.0 +8.3 39 +24 +24 комфорт 1013.5 999.3 +33.4
14 21.03 ЮЗ 3 н/о н/о +22.8 +10.3 45 +25 +25 комфорт 1013.0 998.8
16 21.03 ЮЗ 3 н/о н/о +19.7 +10.9 57 +21 +21 комфорт 1012.4 998.2
17 21.03 Ю 2 н/о н/о +18.9 +11.0 60 +20 +20 1011.7 997.5
22 21.03 Ю 2 н/о н/о +19.1 +11.7 62 +21 +21 комфорт 1012.5 998.3
23 21.03 В 3 н/о н/о +23.3 +12.9 52 +26 +26 жарко 1012.8 998.6
01 22.03 В 3 н/о н/о +29.0 +11.6 34 +30 +30 жарко 1012.7 998.5 +17.5
02 22.03 С 3 н/о н/о +31.5 +10.2 27 +31 +31 жарко 1012.1 997.9
04 22.03 Ю 2 н/о н/о +33.8 +7.0 19 +32 +32 жарко 1009.8 995.6
05 22.03 СЗ 2 н/о н/о +36.0 +5.3 15 +33 +33 жарко 1008.7 994.5
07 22.03 З 4 н/о н/о +37.3 +5.3 14 +35 +35 очень
жарко
1008.0 993.9
08 22.03 Ю 7 н/о н/о +35.5 +6.7 17 +33 +33 жарко 1008.6 994.4
10 22.03 Ю 5 н/о н/о +32.4 +5.8 19 +30 +30 жарко 1009.4 995.2
11 22.03 Ю 3 н/о н/о +31.2 +6.3 21 +30 +30 жарко 1010.3 996.1
13 22.03 Ю 4 н/о н/о +29.4 +6.7 24 +28 +28 жарко 1011.4 997.2 +37.4
14 22.03 Ю 4 н/о н/о +28.9 +6.3 24 +28 +28 жарко 1010.7 996.5
16 22.03 СВ 2 н/о н/о +26.3 +5.8 27 +26 +26 жарко 1009.8 995.6
17 22.03 штиль 0 н/о н/о +25.5 +5.7 28 +25 +25 комфорт 1009.4 995.2
19 22.03 ЮЗ 3 н/о н/о +24.8 +5.6 29 +24 +24 комфорт 1009.7 995.5
20 22.03 ЮЗ 2 н/о н/о +23.6 +5.5 31 +24 +24 комфорт 1009.7 995.5
22 22.03 ЮЗ 3 н/о н/о +24.9 +4.1 26 +24 +24 комфорт 1011.3 997.1
23 22.03 Ю 3 н/о н/о +27.8 +5.4 24 +27 +27 жарко 1011.8 997.6
01 23.03 ЮЗ 8 н/о н/о +32.2 +9.7 25 +32 +32 жарко 1011.8 997.6 +23.4
02 23.03 ЮЗ 5 н/о н/о +32.6 +10.0 25 +32 +32 жарко 1011.4 997.2
04 23.03 ЮЗ 6 н/о н/о +31.7 +10.4 27 +31 +31 жарко 1010.9 996.7
05 23.03 ЮЗ 7 н/о н/о +29.4 +11.0 32 +30 +30 жарко 1011.3 997.1
07 23.03 Ю 7 н/о н/о +27.2 +12.4 40 +29 +29 жарко 1011.2 997.0
08 23.03 ЮЗ 6 н/о н/о +26.4 +13.2 44 +28 +28 жарко 1012.1 997.9
10 23.03 Ю 6 н/о н/о +24.6 +14.4 53 +27 +27 жарко 1012.2 998.0
11 23.03 Ю 5 н/о н/о +23.6 +15.4 60 +27 +27 жарко 1012.5 998.3
13 23.03 Ю 3 н/о н/о +23.4 +15.2 60 +28 +28 душно 1012.1 997.9 +34.1
14 23.03 ЮВ 3 н/о н/о +23.3 +15.1 60 +27 +27 душно 1011.9 997.7
16 23.03 ЮВ 2 н/о н/о +22.5 +14.6 61 +26 +26 жарко 1011.6 997.4
17 23.03 ЮЗ 3 н/о н/о +22.3 +14.7 62 +26 +26 жарко 1010.7 996.5
19 23.03 ЮЗ 2 н/о туман местами н/о +19.9 +16.9 83 +23 +23 комфорт 1010.7 996.5
20 23.03 ЮЗ 2 н/о н/о +19.4 +17.0 86 +22 +22 комфорт 1011.0 996.8
22 23.03 ЮЗ 3 н/о {туман} н/о +19.2 +16.2 83 +21 +21 комфорт 1011.9 997.7 0.6
23 23.03 Ю 1 н/о н/о +19.8 +16.1 79 +23 +23 комфорт 1011.2 997.0

 

Местоположение метеостанции Таркула (Южная Австралия, Австралия): широта -30.72 долгота 134.58 высота над уровнем моря 124 м.

В архиве по умолчанию представлена погода в Таркуле за последнюю неделю. Архивные данные за месяц целиком и за предыдущие месяцы, начиная с января 2011 года, Вы можете получить, выбрав интересующий диапазон дат из раскрывающегося списка и нажав кнопку "Ввод!".


*Определитесь, кто Вы:
робот инопланетянин человек

Внимание! Время в таблицах - всемирное. Для получения местного времени необходимо прибавить поправку, которая равна 9.5 ч.

Смотрите также архив погоды в соседних городах и на ближайших метеорологических станциях:

Погода в Сидуне (Южная Австралия, Австралия) (178 км)
Погода в Кубер-Педи (Южная Австралия, Австралия) (188 км)
Погода на Аэродроме Вумера (Южная Австралия, Австралия) (218 км)
Погода в Олимпик Дэм (Южная Австралия, Австралия) (222 км)
Погода в Миннипа Пирса (Южная Австралия, Австралия) (243 км)
Погода в Уудинне (Южная Австралия, Австралия) (272 км)
Погода в Марри (Южная Австралия, Австралия) (355 км)
Погода в Порт Огаста (Южная Австралия, Австралия) (358 км)
Погода в Наллаборе (Южная Австралия, Австралия) (360 км)
Погода в Однадатте (Южная Австралия, Австралия) (363 км)

Пояснения к столбцам:

Ветер - указаны скорость ветра в м/с - средняя за 10 мин, порывы в срок и между сроками (в фигурных скобках) и направление, откуда дует ветер: С - северный, СВ - северо-восточный, В - восточный, ЮВ - юго-восточный, Ю - южный, ЮЗ - юго-западный, З - западный, СЗ - северо-западный.
Видимость - горизонтальная дальность видимости в метрах или километрах. При видимости от 1 до 10 км при отсутствии осадков обычно наблюдается дымка, при ухудшении видимости до 1 км и менее - туман. В сухую погоду видимость может ухудшаться дымом, пылью или мглою.
Явления - указаны атмосферные явления, наблюдавшиеся в срок или в последний час перед сроком; фигурными скобками обозначены явления, наблюдавшиеся между сроками (за 1-3 часа до срока); квадратными скобками обозначены град или гололедные отложения с указанием их диаметра в мм.
Облачность - указаны через наклонную черту общая и нижняя облачность в баллах и высота нижней границы облаков в метрах; квадратными скобками обозначены формы облаков: Ci - перистые, Cs - перисто-слоистые, Cc - перисто-кучевые, Ac - высококучевые, As - высокослоистые, Sc - слоисто-кучевые, Ns - слоисто-дождевые, Cu - кучевые, Cb - кучево-дождевые. Подробнее классификацию облаков см. в Атласе облаков (PDF).
T - Температура воздуха - температура, измеренная на высоте 2 м над землей.
Td - Температура точки росы - температура, при понижении до которой содержащийся в воздухе водяной пар достигнет насыщения.
f - Относительная влажность воздуха - влажноcть воздуха, измеренная на высоте 2 м над землей.
Te - Эффективная температура - температура, которую ощущает одетый по сезону человек в тени. Характеристика душности погоды. При расчете учитывается влияние влажности воздуха и скорости ветра на теплоощущения человека.
Tes - Эффективная температура на солнце - температура, которую ощущает человек, с поправкой на солнечный нагрев. Характеристика знойности погоды. Зависит от высоты солнца над горизонтом, облачности и скорости ветра. Ночью, в пасмурную погоду, а также при ветре 12 м/с и более поправка равна нулю.
P - Атмосферное давление - приведенное к уровню моря атмосферное давление.
Po - Атмосферное давление - измеренное на уровне метеостанции атмосферное давление.
Tmin - Минимальная температура - минимум температуры воздуха на высоте 2 м над землей.
Tmax - Максимальная температура - максимум температуры воздуха на высоте 2 м над землей.
R - Количество осадков - Количество выпавших осадков за период времени, мм. При наведении курсора мыши на число - период времени, за который выпало указанное количество осадков.
R24 - Количество осадков - Количество выпавших осадков за 24 часа, мм.
S - Снежный покров - Высота снежного покрова, см. При наведении курсора мыши на число - состояние снежного покрова и степень покрытия местности в баллах.